TimeEST,TemperatureF,Dew PointF,Humidity,Sea Level PressureIn,VisibilityMPH,Wind Direction,Wind SpeedMPH,Gust SpeedMPH,PrecipitationIn,Events,Conditions,WindDirDegrees,DateUTC
12:15 AM,35.6,32.0,87,29.50,10.0,WSW,13.8,31.1,N/A,,Mostly Cloudy,240,2012-12-21 05:15:00
12:35 AM,35.6,32.0,87,29.50,10.0,SW,10.4,21.9,N/A,,Overcast,230,2012-12-21 05:35:00
12:55 AM,35.6,32.0,87,29.50,10.0,SW,18.4,23.0,N/A,,Overcast,230,2012-12-21 05:55:00
1:15 AM,35.6,30.2,81,29.50,10.0,WSW,15.0,20.7,N/A,,Overcast,250,2012-12-21 06:15:00
1:35 AM,35.6,30.2,81,29.50,10.0,SW,15.0,21.9,N/A,,Overcast,230,2012-12-21 06:35:00
1:55 AM,35.6,28.4,75,29.50,10.0,SW,17.3,28.8,N/A,,Overcast,230,2012-12-21 06:55:00
2:15 AM,33.8,28.4,81,29.51,10.0,WSW,17.3,31.1,N/A,,Overcast,240,2012-12-21 07:15:00
2:35 AM,33.8,28.4,81,29.51,10.0,WSW,16.1,24.2,N/A,,Overcast,250,2012-12-21 07:35:00
2:55 AM,33.8,28.4,81,29.50,10.0,WSW,11.5,-,N/A,Rain,Light Rain,240,2012-12-21 07:55:00
3:15 AM,33.8,26.6,75,29.49,10.0,WSW,17.3,29.9,N/A,,Overcast,240,2012-12-21 08:15:00
3:35 AM,33.8,26.6,75,29.48,10.0,SW,19.6,28.8,N/A,Rain,Light Rain,230,2012-12-21 08:35:00
3:55 AM,33.8,28.4,81,29.49,5.0,WSW,29.9,39.1,0.01,Snow,Light Snow,250,2012-12-21 08:55:00
4:15 AM,32.0,28.4,87,29.49,9.0,WSW,16.1,33.4,0.01,,Mostly Cloudy,250,2012-12-21 09:15:00
4:35 AM,32.0,26.6,80,29.49,10.0,WSW,16.1,29.9,0.01,Snow,Light Snow,240,2012-12-21 09:35:00
4:55 AM,32.0,26.6,80,29.48,5.0,West,19.6,29.9,0.03,Snow,Light Snow,260,2012-12-21 09:55:00
5:15 AM,32.0,26.6,80,29.48,4.0,WSW,19.6,25.3,0.03,Snow,Light Snow,250,2012-12-21 10:15:00
5:35 AM,30.2,26.6,86,29.48,3.0,WSW,12.7,26.5,0.12,Snow,Light Snow,240,2012-12-21 10:35:00
5:55 AM,30.2,28.4,93,29.48,1.2,WSW,23.0,29.9,0.33,Snow,Light Snow,240,2012-12-21 10:55:00
6:15 AM,30.2,28.4,93,29.48,3.0,WSW,16.1,27.6,0.07,Snow,Light Snow,240,2012-12-21 11:15:00
6:35 AM,30.2,26.6,86,29.48,7.0,WSW,23.0,35.7,0.09,Snow,Light Snow,240,2012-12-21 11:35:00
6:55 AM,30.2,23.0,75,29.49,10.0,WSW,24.2,39.1,0.09,Rain,Freezing Rain,250,2012-12-21 11:55:00
7:15 AM,30.2,23.0,75,29.49,10.0,WSW,17.3,24.2,N/A,Snow,Light Snow,250,2012-12-21 12:15:00
7:35 AM,30.2,24.8,80,29.49,9.0,WSW,17.3,28.8,0.01,Rain,Freezing Rain,250,2012-12-21 12:35:00
7:55 AM,30.2,23.0,75,29.49,10.0,WSW,15.0,32.2,0.01,,Overcast,250,2012-12-21 12:55:00
8:15 AM,30.2,23.0,75,29.49,10.0,WSW,20.7,33.4,N/A,Rain,Freezing Rain,250,2012-12-21 13:15:00
8:35 AM,30.2,23.0,75,29.49,10.0,West,23.0,38.0,N/A,Rain,Freezing Rain,260,2012-12-21 13:35:00
8:55 AM,30.2,23.0,75,29.50,5.0,West,12.7,31.1,0.01,Snow,Light Snow,260,2012-12-21 13:55:00
9:15 AM,30.2,23.0,75,29.50,1.8,WSW,24.2,35.7,0.07,Snow,Light Snow,240,2012-12-21 14:15:00
9:35 AM,30.2,24.8,80,29.50,7.0,WSW,17.3,24.2,0.08,Snow,Light Snow,240,2012-12-21 14:35:00
9:55 AM,30.2,23.0,75,29.51,3.0,WSW,21.9,32.2,0.11,Snow,Light Snow,250,2012-12-21 14:55:00
10:15 AM,28.4,24.8,86,29.51,1.8,WSW,16.1,27.6,0.07,Snow,Light Snow,240,2012-12-21 15:15:00
10:35 AM,28.4,26.6,93,29.51,0.8,WSW,19.6,31.1,0.29,Snow,Light Snow,250,2012-12-21 15:35:00
10:55 AM,28.4,26.6,93,29.52,0.8,WSW,16.1,25.3,0.57,Snow,Light Snow,240,2012-12-21 15:55:00
11:15 AM,28.4,26.6,93,29.51,1.0,SW,20.7,27.6,0.12,Snow,Light Snow,230,2012-12-21 16:15:00
11:35 AM,28.4,26.6,93,29.51,1.0,WSW,23.0,31.1,0.29,Snow,Light Snow,240,2012-12-21 16:35:00
11:55 AM,28.4,26.6,93,29.50,0.8,WSW,18.4,29.9,0.55,Snow,Light Snow,240,2012-12-21 16:55:00
12:15 PM,28.4,26.6,93,29.51,2.0,WSW,19.6,32.2,0.04,Snow,Light Snow,240,2012-12-21 17:15:00
12:35 PM,28.4,24.8,86,29.51,1.2,WSW,20.7,32.2,0.13,Snow,Light Snow,250,2012-12-21 17:35:00
12:55 PM,28.4,24.8,86,29.51,2.5,WSW,21.9,36.8,0.16,,Overcast,240,2012-12-21 17:55:00
1:15 PM,28.4,26.6,93,29.51,1.0,WSW,13.8,27.6,0.08,Snow,Light Snow,240,2012-12-21 18:15:00
1:35 PM,28.4,26.6,93,29.52,0.8,WSW,17.3,29.9,0.14,Snow,Light Snow,240,2012-12-21 18:35:00
1:55 PM,28.4,26.6,93,29.52,1.2,WSW,23.0,27.6,0.32,Snow,Light Snow,250,2012-12-21 18:55:00
2:15 PM,28.4,26.6,93,29.53,2.0,WSW,20.7,31.1,0.01,Snow,Light Snow,250,2012-12-21 19:15:00
2:35 PM,28.4,24.8,86,29.54,2.5,WSW,25.3,33.4,0.04,Snow,Light Snow,250,2012-12-21 19:35:00
2:55 PM,28.4,24.8,86,29.55,1.2,WSW,23.0,29.9,0.17,Snow,Light Snow,240,2012-12-21 19:55:00
3:15 PM,28.4,26.6,93,29.56,1.5,WSW,19.6,25.3,0.08,Snow,Light Snow,250,2012-12-21 20:15:00
3:35 PM,28.4,24.8,86,29.56,2.0,WSW,21.9,27.6,0.14,Snow,Light Snow,250,2012-12-21 20:35:00
3:55 PM,28.4,24.8,86,29.57,2.5,WSW,18.4,29.9,0.18,Snow,Light Snow,240,2012-12-21 20:55:00
4:15 PM,28.4,26.6,93,29.58,0.8,WSW,21.9,27.6,0.11,Snow,Light Snow,240,2012-12-21 21:15:00
4:35 PM,28.4,26.6,93,29.59,0.5,WSW,21.9,28.8,0.26,Snow,Light Snow,240,2012-12-21 21:35:00
4:55 PM,28.4,26.6,93,29.61,0.5,WSW,16.1,26.5,0.43,Snow,Light Snow,240,2012-12-21 21:55:00
5:15 PM,28.4,26.6,93,29.62,1.0,WSW,19.6,29.9,0.11,Snow,Light Snow,240,2012-12-21 22:15:00
5:55 PM,28.4,24.8,86,29.64,2.5,WSW,24.2,31.1,0.32,Snow,Light Snow,250,2012-12-21 22:55:00
6:15 PM,28.4,24.8,86,29.66,1.8,WSW,18.4,32.2,0.11,Snow,Light Snow,250,2012-12-21 23:15:00
6:35 PM,28.4,24.8,86,29.67,2.0,WSW,16.1,32.2,0.22,Snow,Light Snow,240,2012-12-21 23:35:00
6:55 PM,28.4,24.8,86,29.68,2.0,WSW,18.4,34.5,0.32,Snow,Light Snow,250,2012-12-21 23:55:00
7:15 PM,28.4,24.8,86,29.69,3.0,WSW,20.7,32.2,0.02,Snow,Light Snow,240,2012-12-22 00:15:00
7:35 PM,28.4,24.8,86,29.70,3.0,WSW,20.7,25.3,0.06,Snow,Light Snow,240,2012-12-22 00:35:00
7:55 PM,28.4,24.8,86,29.71,2.5,SW,19.6,25.3,0.22,Snow,Light Snow,230,2012-12-22 00:55:00
8:15 PM,28.4,24.8,86,29.72,2.5,SW,17.3,29.9,0.02,Snow,Light Snow,230,2012-12-22 01:15:00
8:35 PM,28.4,24.8,86,29.73,3.0,SW,17.3,26.5,0.11,Snow,Light Snow,230,2012-12-22 01:35:00
8:55 PM,28.4,26.6,93,29.74,2.0,SW,21.9,26.5,0.17,Snow,Light Snow,230,2012-12-22 01:55:00
9:15 PM,26.6,26.6,100,29.75,2.0,WSW,16.1,28.8,0.08,Snow,Light Snow,240,2012-12-22 02:15:00
9:35 PM,26.6,26.6,100,29.76,2.5,SW,16.1,25.3,0.15,Snow,Light Snow,230,2012-12-22 02:35:00
9:55 PM,26.6,26.6,100,29.76,1.2,WSW,18.4,28.8,0.32,Snow,Light Snow,240,2012-12-22 02:55:00
10:15 PM,26.6,26.6,100,29.77,1.2,SW,16.1,27.6,0.17,Snow,Light Snow,230,2012-12-22 03:15:00
10:35 PM,26.6,26.6,100,29.77,1.2,WSW,16.1,24.2,0.40,Snow,Light Snow,240,2012-12-22 03:35:00
10:55 PM,26.6,26.6,100,29.77,2.0,SW,16.1,20.7,0.71,Snow,Light Snow,230,2012-12-22 03:55:00
11:15 PM,26.6,26.6,100,29.78,1.8,SW,17.3,24.2,0.28,Snow,Light Snow,230,2012-12-22 04:15:00
11:35 PM,26.6,26.6,100,29.78,2.5,WSW,17.3,25.3,0.38,Snow,Light Snow,240,2012-12-22 04:35:00
11:55 PM,26.6,26.6,100,29.79,2.5,WSW,17.3,25.3,0.50,Snow,Light Snow,240,2012-12-22 04:55:00